Location: Amsterdam
(30.7274°N, 84.4357°W)
Time: 17:09:01
(UTC+00:00)

Transit 2A Rocket - Pass Details

Date: 24 February 2026
Orbit: 583 x 900 km, 66.7° (Epoch: 12 March)

Event Time Altitude Azimuth Distance (km) Brightness Sun altitude
Rises 20:47:45 0° 245° (WSW) 3,476 9.5 31.8°
Reaches altitude 10° 20:51:00 10° 263° (W) 2,561 8.8 31.2°
Maximum altitude 20:55:08 19° 306° (NW) 2,001 7.6 30.5°
Drops below altitude 10° 20:59:18 10° 351° (N) 2,565 7.6 29.7°
Sets 21:02:35 0° 8° (N) 3,484 8.1 29.1°
